Location: Courtepin
(46.8500°N, 7.2000°E)
Time: 18:17:18
(UTC+00:00)

Daily predictions for brighter satellites

Satellite Brightness Start Highest point End
(mag) Time Altitude Azimuth Time Altitude Azimuth Time Altitude Azimuth
Unknown 4.0 17:04:31 10° WSW 17:08:37 60° NNW 17:12:44 10° ENE
Gbstr 26 Del rocket 4.2 17:04:02 10° WNW 17:09:41 60° NNE 17:16:39 10° E
YAOGAN 6 3.4 17:06:28 10° SE 17:09:43 30° ENE 17:12:57 10° N
Unknown 4.0 17:06:10 10° WSW 17:10:16 59° NNW 17:14:22 10° ENE
CORIOLIS 4.3 17:05:11 10° SSE 17:10:31 82° WSW 17:15:56 10° NNW
Cosmos 1703 4.1 17:07:45 10° NNE 17:11:13 28° ENE 17:14:38 10° SE
Envisat 3.1 17:06:15 10° SSE 17:11:13 57° ENE 17:16:12 10° N
COSMOS 2406 3.4 17:06:12 10° NNW 17:11:50 52° ENE 17:17:26 10° SE
ASTEX 1 3.8 17:07:12 10° NNE 17:11:53 41° E 17:16:34 10° SSE
Unknown 4.1 17:07:49 10° WSW 17:11:55 58° NNW 17:16:01 10° ENE
Unknown 4.1 17:09:30 10° WSW 17:13:36 57° NNW 17:17:42 10° ENE
Cosmos 2084 3.7 17:10:15 10° SW 17:14:47 84° NW 17:19:16 10° NE
Cosmos 921 Rocket 3.3 17:10:58 10° S 17:15:20 52° ESE 17:19:41 10° NNE
Unknown 4.1 17:12:52 10° W 17:16:57 55° NNW 17:21:03 10° ENE
FALCON 9 DEB 4.4 17:14:02 10° NW 17:17:09 30° N 17:20:18 10° ENE
Cosmos 292 Rocket 4.3 17:13:40 10° S 17:18:00 37° ESE 17:22:22 10° NE
Starlink (trailer) 4.2 17:14:31 10° W 17:18:35 54° NNW 17:22:41 10° ENE
Unknown 4.3 17:15:51 10° NW 17:18:57 31° N 17:21:58 11° ENE
Unknown 4.2 17:16:11 10° W 17:20:15 53° NNW 17:24:21 10° ENE
Cosmos 1844 Rocket 2.8 17:15:58 10° SSW 17:21:38 82° WNW 17:27:19 10° NNE
Unknown 4.2 17:17:51 10° W 17:21:55 53° NNW 17:25:59 10° ENE
Cosmos 2058 Rocket 3.3 17:18:01 10° SSE 17:22:09 44° E 17:26:19 10° NNE
Cosmos 1356 4.0 17:20:11 10° SSE 17:23:21 35° E 17:26:31 10° NNE
Cosmos 1953 2.6 17:20:43 10° SSW 17:24:46 75° W 17:28:51 10° N
Unknown 4.4 17:22:53 10° WNW 17:26:04 31° N 17:28:53 12° ENE
Unknown 4.3 17:24:15 10° W 17:28:16 49° NNW 17:32:18 10° ENE
Unknown 4.3 17:24:33 10° W 17:28:36 49° NNW 17:32:37 10° ENE
Unknown 4.3 17:25:12 10° W 17:29:14 49° NNW 17:33:14 10° ENE
Okean-O 3.3 17:25:50 10° S 17:30:13 62° W 17:34:38 10° NNW
FengYun 1-2 T 4.2 17:27:02 10° SSE 17:32:38 72° ENE 17:38:14 10° N
USA 116 4.0 17:29:50 10° NE 17:32:41 29° E 17:35:40 10° SSE
Meteor 1-11 4.4 17:27:08 10° N 17:32:45 52° ENE 17:38:23 10° SSE
Unknown 4.3 17:28:50 10° W 17:32:51 48° NNW 17:36:41 11° ENE
Unknown 4.3 17:29:37 10° W 17:33:39 47° NNW 17:37:27 11° ENE
Unknown 4.4 17:31:25 10° W 17:35:26 46° NNW 17:39:09 12° NE
Falcon 9 debris 4.1 17:32:32 10° NW 17:35:44 34° NNE 17:38:02 16° ENE
BREEZE-M DEB (TANK) 3.7 17:31:53 10° WNW 17:36:07 78° NNE 17:47:29 10° ESE
CZ-4C R/B 4.4 17:29:30 10° NW 17:36:20 42° WSW 17:43:55 10° S
Meteor 1-16 Rocket 4.1 17:31:02 10° S 17:36:33 73° E 17:41:57 10° NNE
Lacrosse 5 2.5 17:33:14 10° NW 17:38:01 39° NNE 17:41:42 16° E
COSMO-SKYMED 1 2.5 17:33:57 10° NNE 17:38:18 67° ESE 17:42:37 10° S
Cosmos 1821 Rocket 4.3 17:32:39 10° NNW 17:38:44 70° W 17:44:50 10° S
Unknown 4.4 17:34:46 10° W 17:38:45 45° NNW 17:42:20 13° NE
Unknown 4.4 17:35:04 10° W 17:39:03 45° NNW 17:42:37 13° NE
Cosmos 1605 Rocket 4.1 17:33:07 10° N 17:39:12 53° ENE 17:45:09 10° SSE
Unknown 4.4 17:36:19 10° W 17:40:19 45° NNW 17:43:50 13° NE
USA 238 DEB 4.5 17:34:55 10° SSE 17:40:28 29° ESE 17:46:08 10° NE
USA 238 4.5 17:35:02 10° SSE 17:40:34 28° ESE 17:46:14 10° ENE
Cosmos 1908 3.6 17:37:15 10° SSE 17:40:57 42° E 17:44:39 10° NNE
Unknown 4.4 17:39:30 10° W 17:43:30 44° NNW 17:46:52 14° NE
Cosmos 2278 Rocket 2.6 17:40:24 10° S 17:45:40 42° ESE 17:50:59 10° NE
ATLAS 5 CENTAUR R/B 3.1 17:42:51 10° WSW 17:46:52 34° NW 17:51:22 10° NNE
Unknown 4.5 17:43:00 10° W 17:46:59 43° NNW 17:50:11 15° NE
Cosmos 1934 Rocket 4.1 17:41:42 10° N 17:48:04 90° NNE 17:54:27 10° S
Cosmos 1953 Rocket 4.4 17:44:17 10° NNW 17:48:34 55° W 17:52:47 10° S
Unknown 4.5 17:44:42 10° W 17:48:40 42° NNW 17:51:48 15° NE
Unknown 4.1 17:45:35 10° NW 17:48:52 35° NNE 17:50:40 21° ENE
Cosmos 1727 Rocket 4.4 17:43:45 10° SSE 17:49:21 38° E 17:54:58 10° NNE
Cosmos 1844 4.2 17:45:20 10° SW 17:51:00 64° WNW 17:56:46 10° NNE
Lacrosse 5 rocket 3.6 17:50:06 10° WNW 17:53:05 22° SW 17:56:10 10° S
Ariane Rocket 3.4 17:49:07 10° SE 17:53:53 42° ENE 17:58:42 10° N
Cosmos 1939 Rocket 3.1 17:55:00 10° SE 17:58:48 46° ENE 18:02:42 10° N
Abrixas rocket 2.8 17:57:15 10° SW 18:00:06 36° SSE 18:00:46 31° ESE
Unknown 4.1 17:59:31 10° WNW 18:01:54 30° SW 18:03:32 16° SSE
Cosmos 1461 3.1 17:58:26 10° NNW 18:02:25 50° NE 18:04:28 26° ESE
Cosmos 1328 4.2 17:58:59 10° NNW 18:02:56 65° W 18:06:51 10° S
Cosmos 1242 Rocket 3.6 18:00:10 10° NNW 18:03:45 49° W 18:07:18 10° S
NOSS 3-2 (A) 4.0 18:00:33 10° S 18:05:32 32° ESE 18:08:34 21° ENE
CSL-04 Rocket 3.8 18:00:20 10° SSE 18:05:53 80° WSW 18:11:25 10° NNW
Cosmos 1726 2.7 18:04:48 10° SSW 18:08:24 57° W 18:12:01 10° N
Cosmos 2084 Rocket 4.4 18:05:54 10° NNW 18:09:55 32° NE 18:11:04 28° ENE
Unknown 2.9 18:08:14 10° WNW 18:11:22 73° SSW 18:12:18 41° SE
HJ-1C 3.7 18:14:01 43° ENE 18:14:06 43° ENE 18:17:20 10° N
Cosmos 1777 Rocket 4.1 18:08:58 10° NNW 18:14:12 79° WSW 18:19:23 10° SSE
NOAA 11 4.1 18:10:43 10° SSE 18:16:09 77° ENE 18:21:36 10° N
SPOT 3 Rocket 4.3 18:17:55 29° ENE 18:18:32 30° ENE 18:23:01 10° N
ARGOS 4.1 18:19:44 26° ENE 18:19:57 26° ENE 18:24:23 10° N
Cosmos 1812 Rocket 3.6 18:15:57 10° S 18:20:15 54° E 18:24:37 10° NNE
Cosmos 2100 Rocket 4.2 18:15:29 10° N 18:21:27 47° ENE 18:25:37 19° SE
CZ-4 R/B 3.1 18:19:58 10° SSW 18:23:50 37° W 18:27:47 10° NNW
Cosmos 1833 Rocket 2.6 18:18:37 10° NNW 18:24:17 86° ENE 18:28:56 15° SSE
Unknown 4.3 18:21:39 10° WNW 18:25:07 34° N 18:25:43 32° NNE
Cosmos 1076 Rocket 3.5 18:21:08 10° N 18:25:27 56° ENE 18:27:00 35° SE
BREEZE-M DEB (TANK) 3.1 18:16:48 10° SW 18:26:51 55° SSE 18:28:00 41° ESE
CZ-2D R/B 3.4 18:24:15 10° S 18:28:05 73° WSW 18:31:59 10° NNW
NOSS 3-2 (C) 4.1 18:24:20 10° S 18:28:34 29° SE 18:28:34 29° SE
YAOGAN 1 3.8 18:25:43 10° S 18:29:50 43° W 18:33:59 10° NNW
Cosmos 1153 Rocket 4.4 18:28:59 10° N 18:35:09 89° E 18:41:18 10° S
H-2A R/B 2.7 18:35:44 36° ENE 18:35:44 36° ENE 18:40:36 10° N
Cosmos 2016 Rocket 4.3 18:36:59 10° N 18:42:58 45° ENE 18:43:50 42° E
Unknown 4.5 18:39:42 10° WNW 18:43:14 34° N 18:43:14 34° N
BREEZE-M DEB (TANK) 3.1 18:39:47 10° WSW 18:42:39 42° SW 18:42:39 42° SW
Meteor 2-1 Rocket 4.2 18:38:53 10° SSE 18:44:11 51° E 18:49:33 10° NNE
Shenzhou-11 Module 4.1 18:42:47 10° WSW 18:44:07 20° SW 18:44:07 20° SW
ADEOS Rocket 3.7 18:39:25 10° NNE 18:46:45 44° E 18:53:33 10° SSE
Cosmos 2082 Rocket 2.1 18:42:50 10° NNW 18:48:36 89° WSW 18:51:05 36° SSE
FALCON 9 DEB 4.1 18:51:09 10° WNW 18:53:41 45° NW 18:53:41 45° NW
Unknown 4.3 18:52:43 10° WNW 18:55:05 42° WNW 18:55:05 42° WNW
Cosmos 1898 Rocket 3.7 18:51:52 10° NNW 18:56:42 53° NE 18:56:42 53° NE
Gbstr 26 Del rocket 4.2 18:50:56 10° WNW 18:57:14 75° SSW 18:59:47 43° SE
Cosmos 2058 3.2 18:58:02 10° N 19:01:38 63° NNW 19:01:38 63° NNW
Cosmos 2061 Rocket 3.9 18:57:05 10° N 19:03:20 65° ENE 19:04:09 59° ESE
ATLAS 3B R/B 3.8 18:58:20 10° S 19:01:17 25° SSE 19:01:17 25° SSE
CZ-2C R/B 4.0 19:12:02 41° NNE 19:12:02 41° NNE 19:16:15 10° N
In-Cosmos 22 Rocket 4.1 19:09:42 10° NNW 19:15:06 83° W 19:15:45 70° SSW
CENTAUR R/B 4.1 19:09:42 10° S 19:11:09 18° S 19:11:09 18° S
Cosmos 1459 Rocket 4.1 19:13:40 10° NNW 19:19:52 73° W 19:23:03 31° S
SJ 16-02 3.1 19:15:35 10° NNW 19:17:24 23° N 19:17:24 23° N
Lacrosse 5 2.2 19:16:14 10° NW 19:20:55 61° WSW 19:20:55 61° WSW
Resurs 01 Rocket 4.0 19:32:43 15° N 19:32:43 15° N 19:33:33 10° N
Cosmos 2278 Rocket 3.6 19:24:36 10° WSW 19:29:49 36° NW 19:35:04 10° NNE
USA 238 DEB 3.8 19:24:09 10° SW 19:30:50 70° NW 19:33:52 36° NNE
USA 238 3.8 19:24:14 10° SW 19:30:57 70° NW 19:33:55 36° NNE
ATLAS 5 CENTAUR R/B 4.3 19:30:30 10° NW 19:33:06 14° NNW 19:34:48 12° N
Cosmos 1802 Rocket 4.5 19:37:51 10° NNW 19:44:09 59° W 19:45:54 45° SW
NOSS 3-2 (A) 3.9 19:50:11 10° WSW 19:55:58 57° NW 19:56:02 57° NW
ARGOS 4.2 20:01:16 42° NW 20:01:16 42° NW 20:05:13 10° NNW
ATLAS CENTAUR R/B 4.4 19:57:21 10° NNW 19:57:49 12° NNW 19:57:49 12° NNW
H-2A R/B 3.7 20:16:23 32° WNW 20:16:23 32° WNW 20:20:03 10° NNW
ADEOS Rocket 4.3 20:24:55 10° N 20:32:11 46° WNW 20:39:01 10° SW
